Location: Central Falls
(41.8900°N, 71.3929°W)
Time: 16:50:40
(UTC+00:00)

Vanguard 1 Rocket - Pass Details

Date: 05 December 2023
Orbit: 654 x 4218 km, 34.3° (Epoch: 25 February)

Event Time Altitude Azimuth Distance (km) Brightness Sun altitude
Rises 09:09:59 0° 231° (SW) 8,431 - -30.4°
Exits shadow 09:12:24 - 230° (SW) 7,993 11.8 -30.0°
Reaches altitude 10° 09:16:25 10° 227° (SW) 7,243 11.6 -29.2°
Maximum altitude 09:38:03 50° 161° (SSE) 3,488 10.4 -25.2°
Drops below altitude 10° 09:50:27 10° 91° (E) 4,375 12.0 -23.0°
Sets 09:53:14 0° 86° (E) 5,010 12.5 -22.4°
